Bedford, Massachusetts, United States (01730)
Lat: 42.49N, Lon: 71.28W
Wx Zone: MAZ005
Local Info
Past Weather Observations for Saturday, November 22, 2014

NOTE: This archive is for the closest National Weather Service station to Bedford. Information may differ from the station used for current weather conditions.

Click here for Long-term Archive

Time Weather Temperature Dewpoint Humidity Pressure Winds Precip Visibility
23:56
Clear
39°F / 4°C 19°F / -7°C 45% 30.06 in
(1018 mb)
SW 4.6 mph
(SW 7 kph)
- 10SM
22:56
Partly Cloudy
39°F / 4°C 19°F / -7°C 45% 30.06 in
(1018 mb)
SSW 11.5 mph
(SSW 19 kph)
- 10SM
21:56
Partly Cloudy
39°F / 4°C 18°F / -8°C 42% 30.06 in
(1018 mb)
SW 15 mph
(SW 24 kph)
- 10SM
20:56
Overcast
39°F / 4°C 16°F / -9°C 39% 30.06 in
(1018 mb)
SW 10.4 mph
(SW 17 kph)
- 10SM
19:56
Partly Cloudy
37°F / 3°C 14°F / -10°C 38% 30.06 in
(1018 mb)
SW 9.2 mph
(SW 15 kph)
- 10SM
18:56
Overcast
39°F / 4°C 12°F / -11°C 33% 30.09 in
(1019 mb)
SW 10.4 mph
(SW 17 kph)
- 10SM
17:56
Overcast
39°F / 4°C 12°F / -11°C 33% 30.09 in
(1019 mb)
SW 16.1 mph
(SW 26 kph)
- 10SM
16:56
Overcast
39°F / 4°C 9°F / -13°C 28% 30.12 in
(1020 mb)
SW 15 mph
(SW 24 kph)
- 10SM
15:56
Clear
41°F / 5°C 3°F / -16°C 20% 30.12 in
(1020 mb)
SW 12.7 mph
(SW 20 kph)
- 10SM
14:56
Clear
43°F / 6°C 1°F / -17°C 17% 30.15 in
(1021 mb)
SW 11.5 mph
(SW 19 kph)
- 10SM
13:56
Clear
43°F / 6°C 3°F / -16°C 19% 30.15 in
(1021 mb)
SSW 11.5 mph
(SSW 19 kph)
- 10SM
12:56
Clear
39°F / 4°C 7°F / -14°C 26% 30.21 in
(1023 mb)
SW 15 mph
(SW 24 kph)
- 10SM
11:56
Clear
34°F / 1°C 9°F / -13°C 35% 30.24 in
(1024 mb)
SW 11.5 mph
(SW 19 kph)
- 10SM
10:56
Clear
32°F / 0°C 10°F / -12°C 40% 30.3 in
(1026 mb)
SW 13.8 mph
(SW 22 kph)
- 10SM
09:56
Clear
32°F / 0°C 10°F / -12°C 40% 30.33 in
(1027 mb)
SSW 11.5 mph
(SSW 19 kph)
- 10SM
08:56
Partly Cloudy
28°F / -2°C 10°F / -12°C 47% 30.39 in
(1029 mb)
SW 9.2 mph
(SW 15 kph)
- 10SM
07:56
Partly Cloudy
25°F / -4°C 12°F / -11°C 59% 30.39 in
(1029 mb)
SW 11.5 mph
(SW 19 kph)
- 10SM
06:56
Partly Cloudy
19°F / -7°C 10°F / -12°C 68% 30.39 in
(1029 mb)
SW 6.9 mph
(SW 11 kph)
- 10SM
05:56
Clear
21°F / -6°C 10°F / -12°C 63% 30.39 in
(1029 mb)
SW 5.8 mph
(SW 9 kph)
- 10SM
04:56
Clear
21°F / -6°C 10°F / -12°C 63% 30.39 in
(1029 mb)
SW 5.8 mph
(SW 9 kph)
- 10SM
03:56
Clear
21°F / -6°C 10°F / -12°C 63% 30.42 in
(1030 mb)
SW 6.9 mph
(SW 11 kph)
- 10SM
02:56
Clear
21°F / -6°C 10°F / -12°C 63% 30.42 in
(1030 mb)
SW 5.8 mph
(SW 9 kph)
- 10SM
01:56
Clear
21°F / -6°C 9°F / -13°C 58% 30.42 in
(1030 mb)
SSW 4.6 mph
(SSW 7 kph)
- 10SM
00:56
Clear
21°F / -6°C 7°F / -14°C 54% 30.39 in
(1029 mb)
SSW 5.8 mph
(SSW 9 kph)
- 10SM
Time Weather Temperature Dewpoint Humidity Pressure Winds Precip Visibility


Weather for websites

WeatherForYou.com, LLC is not responsible for any damages or problems caused by this service. Current weather conditions are obtained from the closest station including government and personal stations which may have varying degrees of accuracy. Weather forecasts are derived from the NOAA NDFD. Like all things, this site belongs to Jesus Christ... He just trusts me to maintain it. If you have any questions or comments email webmaster@weatherforyou.com

Copyright © 2014, WeatherForYou.com LLC. All rights reserved.